TimeEST,TemperatureF,Dew PointF,Humidity,Sea Level PressureIn,VisibilityMPH,Wind Direction,Wind SpeedMPH,Gust SpeedMPH,PrecipitationIn,Events,Conditions,WindDirDegrees,DateUTC
12:58 AM,51.1,51.1,100,30.25,0.2,SW,4.6,-,N/A,Fog,Fog,220,2013-01-29 05:58:00
1:46 AM,51.8,51.8,100,30.24,1.2,WSW,4.6,-,N/A,,Overcast,250,2013-01-29 06:46:00
1:52 AM,51.8,51.8,100,30.24,3.0,WSW,4.6,-,0.01,,Overcast,250,2013-01-29 06:52:00
1:58 AM,51.1,51.1,100,30.24,4.0,WSW,5.8,-,0.01,,Mostly Cloudy,250,2013-01-29 06:58:00
2:08 AM,51.8,51.8,100,30.24,6.0,WSW,5.8,-,N/A,,Scattered Clouds,250,2013-01-29 07:08:00
2:23 AM,53.6,51.8,94,30.24,1.8,WSW,8.1,-,N/A,,Mostly Cloudy,250,2013-01-29 07:23:00
2:30 AM,53.6,51.8,94,30.23,0.8,WSW,6.9,-,N/A,,Mostly Cloudy,240,2013-01-29 07:30:00
2:58 AM,52.0,52.0,100,30.24,0.5,WSW,5.8,-,N/A,Fog,Fog,250,2013-01-29 07:58:00
3:40 AM,50.0,50.0,100,30.23,1.0,WSW,4.6,-,N/A,,Overcast,240,2013-01-29 08:40:00
3:47 AM,50.0,48.2,94,30.22,1.2,SW,5.8,-,N/A,,Overcast,230,2013-01-29 08:47:00
3:58 AM,50.0,50.0,100,30.22,0.8,SW,5.8,-,N/A,,Mist,230,2013-01-29 08:58:00
4:58 AM,48.9,48.9,100,30.22,0.2,SW,8.1,-,N/A,Fog,Fog,230,2013-01-29 09:58:00
5:45 AM,50.0,50.0,100,30.22,1.0,WSW,5.8,-,N/A,,Mist,240,2013-01-29 10:45:00
5:49 AM,50.0,50.0,100,30.22,1.2,WSW,4.6,-,N/A,,Overcast,250,2013-01-29 10:49:00
5:58 AM,50.0,50.0,100,30.22,1.5,WSW,4.6,-,N/A,,Overcast,240,2013-01-29 10:58:00
6:10 AM,48.2,48.2,100,30.22,2.5,SW,5.8,-,N/A,,Mostly Cloudy,230,2013-01-29 11:10:00
6:18 AM,48.2,48.2,100,30.22,1.5,SW,4.6,-,N/A,,Scattered Clouds,230,2013-01-29 11:18:00
6:30 AM,48.2,48.2,100,30.22,3.0,WSW,4.6,-,N/A,,Clear,250,2013-01-29 11:30:00
6:58 AM,48.9,48.0,97,30.23,3.0,WSW,4.6,-,N/A,,Clear,240,2013-01-29 11:58:00
7:58 AM,51.1,51.1,100,30.24,4.0,WSW,5.8,-,N/A,,Clear,250,2013-01-29 12:58:00
8:58 AM,55.9,53.1,90,30.23,5.0,WSW,8.1,-,N/A,,Clear,250,2013-01-29 13:58:00
9:58 AM,60.1,55.0,83,30.24,7.0,SW,9.2,-,N/A,,Clear,220,2013-01-29 14:58:00
10:58 AM,62.1,54.0,75,30.23,7.0,SW,8.1,-,N/A,,Clear,220,2013-01-29 15:58:00
11:58 AM,63.0,55.0,75,30.20,8.0,SW,10.4,-,N/A,,Clear,220,2013-01-29 16:58:00
12:58 PM,64.9,55.9,73,30.17,8.0,SW,11.5,-,N/A,,Clear,220,2013-01-29 17:58:00
1:58 PM,63.0,55.9,78,30.15,7.0,SW,11.5,-,N/A,,Clear,220,2013-01-29 18:58:00
2:58 PM,63.0,57.0,81,30.14,8.0,SW,10.4,-,N/A,,Clear,220,2013-01-29 19:58:00
3:58 PM,62.1,57.0,84,30.16,8.0,SW,11.5,-,N/A,,Clear,220,2013-01-29 20:58:00
4:58 PM,60.1,57.0,90,30.15,7.0,SW,12.7,-,N/A,,Clear,220,2013-01-29 21:58:00
5:58 PM,57.9,57.0,97,30.16,7.0,SW,8.1,-,N/A,,Clear,220,2013-01-29 22:58:00
6:58 PM,55.9,55.9,100,30.16,5.0,SSW,4.6,-,N/A,,Clear,200,2013-01-29 23:58:00
7:58 PM,57.9,57.0,97,30.16,6.0,SSW,6.9,-,N/A,,Clear,200,2013-01-30 00:58:00
8:58 PM,57.0,57.0,100,30.16,3.0,SSW,8.1,-,N/A,,Clear,200,2013-01-30 01:58:00
9:58 PM,57.9,57.0,97,30.16,4.0,SSW,8.1,-,N/A,,Clear,200,2013-01-30 02:58:00
10:58 PM,57.9,57.9,100,30.16,5.0,SW,8.1,-,N/A,,Clear,220,2013-01-30 03:58:00
11:58 PM,57.0,57.0,100,30.16,4.0,SSW,8.1,-,N/A,,Clear,210,2013-01-30 04:58:00